CW3442 Weather Reports


Display with metric or nautical units.
time (UTC)temp
F
wind
direction
speed
MPH
gust
MPH
rain 1hr
in
rain 24hr
in
rain mn
in
humidity
%
barometer
mb
20260508000342 49 275 0.0 0.0 0.00 0.00 0.00 50 786.8
20260507233352 50 275 0.0 0.0 0.00 0.00 0.00 46 786.8
20260507230338 52 261 0.0 0.0 0.00 0.00 0.00 44 786.7
20260507223321 51 257 0.0 0.0 0.00 0.00 0.00 44 786.7
20260507220348 51 275 0.0 0.0 0.00 0.00 0.00 48 786.8
20260507213338 52 298 0.0 0.0 0.00 0.00 0.00 46 786.7
20260507210325 52 285 0.0 0.0 0.00 0.00 0.00 47 786.7
20260507203338 52 255 0.0 0.0 0.00 0.00 0.00 48 786.6
20260507200350 53 272 0.0 0.0 0.00 0.00 0.00 42 786.6
20260507193350 52 273 0.0 0.0 0.00 0.00 0.00 45 786.7
20260507190354 52 256 0.0 0.0 0.00 0.00 0.00 46 786.7
20260507183331 50 271 0.0 0.0 0.00 0.00 0.00 49 786.6
20260507180320 50 290 0.0 0.0 0.00 0.00 0.00 47 786.6
20260507173328 51 278 0.0 0.0 0.00 0.00 0.00 45 786.6
20260507170401 50 292 0.0 0.0 0.00 0.00 0.00 46 786.6
20260507163335 50 285 0.0 0.0 0.00 0.00 0.00 46 786.6
20260507160349 50 279 1.0 0.0 0.00 0.00 0.00 51 786.6
20260507153331 51 245 1.0 0.0 0.00 0.00 0.00 53 786.6
20260507150348 51 258 2.0 0.0 0.00 0.00 0.00 55 786.6
20260507143323 50 296 1.0 0.0 0.00 0.00 0.00 57 786.6
20260507140329 49 191 0.0 0.0 0.00 0.00 0.00 55 786.6
20260507133331 47 267 1.0 0.0 0.00 0.00 0.00 59 786.7
20260507130339 47 223 1.0 0.0 0.00 0.00 0.00 60 786.7
20260507123336 45 256 1.0 0.0 0.00 0.00 0.00 62 786.7
20260507120345 44 330 2.0 0.0 0.00 0.00 0.00 65 786.7
20260507113324 44 271 2.0 0.0 0.00 0.00 0.00 66 786.7
20260507110401 44 236 1.0 0.0 0.00 0.00 0.00 70 786.6
20260507103335 44 231 1.0 0.0 0.00 0.00 0.00 76 786.5
20260507100323 44 109 0.0 0.0 0.00 0.00 0.00 82 786.5
20260507093336 44 205 0.0 0.0 0.00 0.00 0.00 87 786.6
20260507090342 44 221 0.0 0.0 0.00 0.00 0.00 88 786.5
20260507083406 44 189 0.0 0.0 0.00 0.00 0.00 88 786.5
20260507080330 44 200 0.0 0.0 0.00 0.00 0.00 88 786.6
20260507073324 44 213 0.0 0.0 0.00 0.00 0.00 87 786.6
20260507070320 44 228 0.0 0.0 0.00 0.00 0.00 87 786.6
20260507063338 44 203 0.0 0.0 0.00 0.00 0.00 87 786.6
20260507060349 44 179 0.0 0.0 0.00 0.00 0.00 88 786.7
20260507053351 43 171 0.0 0.0 0.00 0.00 0.00 88 786.8
20260507050336 43 191 0.0 0.0 0.00 0.00 0.00 88 786.9
20260507043325 43 191 0.0 0.0 0.00 0.00 0.00 87 786.9
20260507040350 43 191 0.0 0.0 0.00 0.00 0.00 86 787.0
20260507033351 43 191 0.0 0.0 0.00 0.00 0.00 86 787.0
20260507030321 44 191 0.0 0.0 0.00 0.00 0.00 85 787.0
20260507023324 45 191 0.0 0.0 0.00 0.00 0.00 83 787.1
20260507020337 45 211 0.0 0.0 0.00 0.00 0.00 82 787.1
20260507013409 46 185 0.0 0.0 0.00 0.00 0.00 82 787.1
20260507010338 47 192 0.0 0.0 0.00 0.00 0.00 81 787.1
20260507003349 47 195 0.0 0.0 0.00 0.00 0.00 79 787.0